Hourly Weather Roundup
Issued by NWS Central Illinois

Home | Current Version | Previous Version | Text Only | Print | Product List | Glossary On
Versions: 1 2 3 4 5 6 7 8 9 10 11 12 13 14 15 16 17 18 19 20 21 22 23 24 25 26 27 28 29 30 31 32 33 34 35 36 37 38 39 40 41 42 43 44 45 46 47 48 49 50
000
NZUS43 KILX 051410
HWRILX

AREA WEATHER ROUNDUP
NATIONAL WEATHER SERVICE, LINCOLN IL
900 AM CDT SAT SEP 05 2015


CITY           SKY/WX    TMP DP  RH WIND       PRES   REMARKS
BLOOMINGTON    CLOUDY    77  69  76 S8        30.14S
CHAMPAIGN      MOSUNNY   79  70  74 VRB3      30.14R HX  82
DANVILLE       CLOUDY    69  68  94 CALM      30.13F
DECATUR        MOSUNNY   78  67  68 S5        30.13R HX  80
EFFINGHAM      SUNNY     78  66  68 S6        30.14S
FLORA          SUNNY     78  68  72 S5        30.13R
GALESBURG      MOSUNNY   75  70  84 S5        30.09S
JACKSONVILLE   SUNNY     82  72  69 SE3       30.10F HX  87
LACON          CLOUDY    74  68  81 S3        30.09R
LAWRENCEVILLE  SUNNY     78  68  71 E3        30.13S HX  80
LITCHFIELD     SUNNY     77  68  75 SE3       30.13S
$$


CITY           SKY/WX    TMP DP  RH WIND       PRES   REMARKS
LINCOLN        MOSUNNY   76  67  71 S3        30.12S
MACOMB         MOSUNNY   80  70  72 S3        30.10F HX  83
MATTOON        SUNNY     77  68  73 S7        30.13R
MT CARMEL AP   SUNNY     77  66  69 CALM      30.13R
OLNEY-NOBLE AP SUNNY     77  70  78 SE3       30.13S
PARIS          SUNNY     75  71  88 S6        30.14S
PEORIA         PTSUNNY   77  67  71 S5        30.11R
PONTIAC        PTSUNNY   76  69  77 SE9       30.13S
RANTOUL          N/A     74  70  87 E7        30.15R
ROBINSON       SUNNY     78  68  71 SW5       30.14S HX  80
SPRINGFIELD    SUNNY     80  69  69 SE5       30.12R HX  83
TAYLORVILLE    SUNNY     77  68  73 S5        30.12S
$$

...REGIONAL REPORTS...


CITY           SKY/WX    TMP DP  RH WIND       PRES   REMARKS
CHICAGO O`HARE PTSUNNY   73  66  78 S9        30.09S
KANKAKEE       PTSUNNY   70  69  98 CALM      30.13S
MOLINE         MOSUNNY   79  70  74 S6        30.07R HX  82
MOUNT STERLING SUNNY     77  71  81 S3        30.09S
MOUNT VERNON   SUNNY     77  68  73 CALM      30.13S
PITTSFIELD     SUNNY     80  70  71 S5        30.11S HX  83
QUINCY         SUNNY     80  69  69 S8        30.09S HX  83
ROCKFORD       CLOUDY    75  69  81 S3        30.10S
$$


CITY           SKY/WX    TMP DP  RH WIND       PRES   REMARKS
BURLINGTON     MOSUNNY   78  73  84 S7        30.07F HX  81
CEDAR RAPIDS   MOSUNNY   76  72  87 S6        30.04S
DES MOINES     PTSUNNY   79  69  71 S9        30.01R HX  81
KIRKSVILLE     SUNNY     79  69  71 S12       30.07S HX  81
OTTUMWA        MOSUNNY   78  72  81 S9        30.03S HX  80
ST LOUIS       SUNNY     83  69  62 CALM      30.11S HX  86
$$


CITY           SKY/WX    TMP DP  RH WIND       PRES   REMARKS
TERRE HAUTE    MOSUNNY   74  67  78 CALM      30.14R
EVANSVILLE     SUNNY     79  68  69 CALM      30.12S HX  81
INDIANAPOLIS   MOSUNNY   75  66  73 S5        30.15R
LAFAYETTE      TSTM      70  65  84 NW3       30.14R
MADISON        MOSUNNY   73  67  81 SE3       30.07S
MILWAUKEE      CLOUDY    69  67  93 SE6       30.10R
$$




USA.gov is the U.S. government's official web portal to all federal, state and local government web resources and services.